• In Hungary
  • List of Countries
  • For 7 days
  • Water Temperature
  • Satellite Maps
  • Weather Map
  • News
  • Weather Widgets
  • user-avatar
    Login

    Hourly Weather Stavchyntsi

    Today, 24 October, Tuesday

    Time Temperature Precipitation Wind Pressure Humidity
    00:00 +3°C° 0.2 mm 5 mps 732 mmHg 83%
    01:00 +3°C° 0.2 mm 5 mps 733 mmHg 83%
    02:00 +3°C° 0.2 mm 5 mps 733 mmHg 84%
    03:00 +3°C° 0.1 mm 5 mps 733 mmHg 84%
    04:00 +3°C° 0.1 mm 5 mps 734 mmHg 84%
    05:00 +2°C° 0.1 mm 5 mps 734 mmHg 85%
    06:00 +2°C° 0.2 mm 6 mps 735 mmHg 84%
    07:00 +2°C° 0.2 mm 6 mps 735 mmHg 83%
    08:00 +2°C° 0.2 mm 6 mps 736 mmHg 83%
    09:00 +2°C° 0.3 mm 5 mps 737 mmHg 81%
    10:00 +3°C° 0.3 mm 5 mps 737 mmHg 78%
    11:00 +3°C° 0.3 mm 5 mps 738 mmHg 76%
    12:00 +3°C° 0.1 mm 5 mps 738 mmHg 73%
    13:00 +5°C° 0.1 mm 5 mps 738 mmHg 71%
    14:00 +5°C° 0.1 mm 5 mps 739 mmHg 68%
    15:00 +5°C° 0 mm 5 mps 739 mmHg 70%
    16:00 +4°C° 0 mm 4 mps 739 mmHg 71%
    17:00 +3°C° 0 mm 4 mps 740 mmHg 72%
    18:00 +3°C° 0 mm 3 mps 740 mmHg 74%
    19:00 +2°C° 0 mm 3 mps 741 mmHg 76%
    20:00 +1°C° 0 mm 3 mps 741 mmHg 77%
    21:00 +1°C° 0 mm 3 mps 741 mmHg 78%
    22:00 +1°C° 0 mm 2 mps 742 mmHg 79%
    23:00 +1°C° 0 mm 2 mps 742 mmHg 79%

    Tomorrow, 25 October, Wednesday

    Time Temperature Precipitation Wind Pressure Humidity
    00:00 -1°C° 0 mm 2 mps 742 mmHg 79%
    01:00 -1°C° 0 mm 2 mps 742 mmHg 80%
    02:00 -1°C° 0 mm 2 mps 742 mmHg 80%
    03:00 -2°C° 0 mm 2 mps 742 mmHg 80%
    04:00 -2°C° 0 mm 2 mps 742 mmHg 79%
    05:00 -2°C° 0 mm 2 mps 743 mmHg 79%
    06:00 -2°C° 0 mm 2 mps 743 mmHg 77%
    07:00 -1°C° 0 mm 2 mps 743 mmHg 75%
    08:00 -1°C° 0 mm 3 mps 744 mmHg 73%
    09:00 +1°C° 0 mm 3 mps 744 mmHg 66%
    10:00 +2°C° 0 mm 3 mps 744 mmHg 59%
    11:00 +4°C° 0 mm 3 mps 744 mmHg 52%
    12:00 +5°C° 0 mm 3 mps 743 mmHg 50%
    13:00 +5°C° 0 mm 3 mps 743 mmHg 48%
    14:00 +7°C° 0 mm 2 mps 743 mmHg 46%
    15:00 +6°C° 0 mm 2 mps 742 mmHg 50%
    16:00 +5°C° 0 mm 2 mps 742 mmHg 54%
    17:00 +4°C° 0 mm 2 mps 742 mmHg 59%
    18:00 +3°C° 0 mm 3 mps 742 mmHg 60%
    19:00 +3°C° 0 mm 3 mps 741 mmHg 61%
    20:00 +2°C° 0 mm 3 mps 741 mmHg 63%
    21:00 +3°C° 0 mm 4 mps 741 mmHg 62%
    22:00 +3°C° 0 mm 4 mps 741 mmHg 61%
    23:00 +2°C° 0 mm 5 mps 741 mmHg 60%

    Day after tomorrow, 26 October, Thursday

    Time Temperature Precipitation Wind Pressure Humidity
    00:00 +2°C° 0 mm 5 mps 741 mmHg 61%
    01:00 +3°C° 0 mm 5 mps 740 mmHg 62%
    02:00 +3°C° 0 mm 5 mps 740 mmHg 63%
    03:00 +4°C° 0.1 mm 4 mps 740 mmHg 67%
    04:00 +4°C° 0.1 mm 4 mps 739 mmHg 70%
    05:00 +4°C° 0.1 mm 4 mps 739 mmHg 74%
    06:00 +5°C° 0.1 mm 4 mps 739 mmHg 76%
    07:00 +5°C° 0.1 mm 4 mps 739 mmHg 78%
    08:00 +6°C° 0.1 mm 4 mps 739 mmHg 80%
    09:00 +7°C° 0 mm 4 mps 739 mmHg 81%
    10:00 +8°C° 0 mm 5 mps 739 mmHg 81%
    11:00 +9°C° 0 mm 5 mps 739 mmHg 82%
    12:00 +9°C° 0 mm 5 mps 739 mmHg 81%
    13:00 +10°C° 0 mm 5 mps 739 mmHg 80%
    14:00 +10°C° 0 mm 5 mps 738 mmHg 80%
    15:00 +11°C° 0 mm 4 mps 738 mmHg 81%
    16:00 +11°C° 0 mm 4 mps 738 mmHg 83%
    17:00 +10°C° 0 mm 3 mps 738 mmHg 84%
    18:00 +10°C° 0 mm 3 mps 737 mmHg 85%
    19:00 +10°C° 0 mm 3 mps 737 mmHg 86%
    20:00 +10°C° 0 mm 3 mps 737 mmHg 88%
    21:00 +8°C° 0 mm 4 mps 737 mmHg 87%
    22:00 +8°C° 0 mm 4 mps 737 mmHg 87%
    23:00 +8°C° 0 mm 4 mps 736 mmHg 86%

    27 October, Friday

    Time Temperature Precipitation Wind Pressure Humidity
    00:00 +8°C° 0.1 mm 4 mps 736 mmHg 86%
    01:00 +8°C° 0.1 mm 4 mps 736 mmHg 87%
    02:00 +8°C° 0.1 mm 4 mps 735 mmHg 87%
    03:00 +9°C° 0.6 mm 3 mps 735 mmHg 88%
    04:00 +9°C° 0.6 mm 3 mps 734 mmHg 90%
    05:00 +9°C° 0.6 mm 3 mps 734 mmHg 91%
    06:00 +9°C° 1.2 mm 3 mps 733 mmHg 91%
    07:00 +9°C° 1.2 mm 3 mps 733 mmHg 91%
    08:00 +9°C° 1.2 mm 3 mps 732 mmHg 91%
    09:00 +10°C° 0.1 mm 4 mps 732 mmHg 88%
    10:00 +10°C° 0.1 mm 5 mps 732 mmHg 84%
    11:00 +12°C° 0.1 mm 5 mps 731 mmHg 81%
    12:00 +12°C° 0.3 mm 5 mps 731 mmHg 80%
    13:00 +12°C° 0.3 mm 5 mps 730 mmHg 79%
    14:00 +13°C° 0.3 mm 5 mps 729 mmHg 78%
    15:00 +12°C° 0.8 mm 5 mps 729 mmHg 81%
    16:00 +11°C° 0.8 mm 4 mps 728 mmHg 85%
    17:00 +11°C° 0.8 mm 3 mps 728 mmHg 88%
    18:00 +10°C° 0.8 mm 3 mps 728 mmHg 89%
    19:00 +10°C° 0.8 mm 3 mps 727 mmHg 90%
    20:00 +10°C° 0.8 mm 3 mps 727 mmHg 91%
    21:00 +9°C° 0.5 mm 3 mps 726 mmHg 91%
    22:00 +9°C° 0.5 mm 3 mps 726 mmHg 92%
    23:00 +8°C° 0.5 mm 2 mps 726 mmHg 93%

    28 October, Saturday

    Time Temperature Precipitation Wind Pressure Humidity
    00:00 +8°C° 1 mm 3 mps 725 mmHg 92%
    01:00 +6°C° 1 mm 4 mps 725 mmHg 92%
    02:00 +6°C° 1 mm 4 mps 725 mmHg 92%
    03:00 +6°C° 0.8 mm 5 mps 725 mmHg 91%
    04:00 +6°C° 0.8 mm 5 mps 725 mmHg 90%
    05:00 +6°C° 0.8 mm 5 mps 725 mmHg 90%
    06:00 +6°C° 0.1 mm 5 mps 725 mmHg 89%
    07:00 +6°C° 0.1 mm 5 mps 725 mmHg 88%
    08:00 +6°C° 0.1 mm 5 mps 726 mmHg 87%
    09:00 +7°C° 0.1 mm 5 mps 726 mmHg 83%
    10:00 +7°C° 0.1 mm 6 mps 726 mmHg 78%
    11:00 +8°C° 0.1 mm 6 mps 726 mmHg 74%
    12:00 +8°C° 0.2 mm 6 mps 726 mmHg 74%
    13:00 +8°C° 0.2 mm 7 mps 726 mmHg 75%
    14:00 +6°C° 0.2 mm 7 mps 725 mmHg 75%
    15:00 +6°C° 0 mm 7 mps 726 mmHg 75%
    16:00 +5°C° 0 mm 6 mps 726 mmHg 74%
    17:00 +5°C° 0 mm 5 mps 726 mmHg 73%
    18:00 +5°C° 0 mm 5 mps 726 mmHg 76%
    19:00 +4°C° 0 mm 4 mps 727 mmHg 78%
    20:00 +4°C° 0 mm 4 mps 727 mmHg 80%
    21:00 +4°C° 0 mm 4 mps 727 mmHg 83%
    22:00 +3°C° 0 mm 4 mps 727 mmHg 86%
    23:00 +3°C° 0 mm 4 mps 727 mmHg 89%

    29 October, Sunday

    Time Temperature Precipitation Wind Pressure Humidity
    00:00 +3°C° 0 mm 4 mps 727 mmHg 91%
    01:00 +3°C° 0 mm 4 mps 727 mmHg 92%
    02:00 +2°C° 0 mm 3 mps 726 mmHg 94%
    03:00 +2°C° 0 mm 3 mps 726 mmHg 93%
    04:00 +2°C° 0 mm 3 mps 726 mmHg 93%
    05:00 +2°C° 0 mm 3 mps 725 mmHg 92%
    06:00 +3°C° 0.1 mm 3 mps 725 mmHg 89%
    07:00 +3°C° 0.1 mm 4 mps 725 mmHg 85%
    08:00 +4°C° 0.1 mm 4 mps 725 mmHg 81%
    09:00 +5°C° 0.1 mm 5 mps 725 mmHg 77%
    10:00 +6°C° 0.1 mm 5 mps 725 mmHg 74%
    11:00 +7°C° 0.1 mm 5 mps 725 mmHg 70%
    12:00 +7°C° 0.2 mm 5 mps 725 mmHg 70%
    13:00 +7°C° 0.2 mm 4 mps 724 mmHg 70%
    14:00 +7°C° 0.2 mm 4 mps 724 mmHg 71%
    15:00 +8°C° 0 mm 3 mps 724 mmHg 74%
    16:00 +7°C° 0 mm 3 mps 724 mmHg 78%
    17:00 +6°C° 0 mm 2 mps 724 mmHg 82%
    18:00 +6°C° 0 mm 2 mps 724 mmHg 85%
    19:00 +5°C° 0 mm 2 mps 724 mmHg 87%
    20:00 +4°C° 0 mm 3 mps 725 mmHg 90%
    21:00 +4°C° 0 mm 3 mps 725 mmHg 91%
    22:00 +3°C° 0 mm 3 mps 725 mmHg 92%
    23:00 +3°C° 0 mm 3 mps 725 mmHg 93%

    30 October, Monday

    Time Temperature Precipitation Wind Pressure Humidity
    00:00 +3°C° 0 mm 3 mps 725 mmHg 94%
    01:00 +2°C° 0 mm 3 mps 725 mmHg 94%
    02:00 +2°C° 0 mm 3 mps 725 mmHg 95%
    03:00 +2°C° 0 mm 3 mps 725 mmHg 95%
    04:00 +1°C° 0 mm 3 mps 725 mmHg 96%
    05:00 +1°C° 0 mm 3 mps 725 mmHg 96%
    06:00 +1°C° 0 mm 3 mps 725 mmHg 95%
    07:00 +2°C° 0 mm 3 mps 725 mmHg 94%
    08:00 +2°C° 0 mm 3 mps 725 mmHg 93%
    09:00 +3°C° 0 mm 4 mps 725 mmHg 84%
    10:00 +4°C° 0 mm 4 mps 725 mmHg 76%
    11:00 +6°C° 0 mm 5 mps 725 mmHg 67%
    12:00 +6°C° 0.1 mm 5 mps 725 mmHg 66%
    13:00 +6°C° 0.1 mm 5 mps 724 mmHg 65%
    14:00 +7°C° 0.1 mm 6 mps 724 mmHg 64%
    15:00 +5°C° 0.2 mm 6 mps 724 mmHg 68%
    16:00 +6°C° 0.2 mm 5 mps 723 mmHg 71%
    17:00 +6°C° 0.2 mm 5 mps 723 mmHg 75%
    18:00 +6°C° 0.1 mm 5 mps 723 mmHg 77%
    19:00 +6°C° 0.1 mm 5 mps 723 mmHg 78%
    20:00 +6°C° 0.1 mm 5 mps 724 mmHg 80%
    21:00 +5°C° 0 mm 5 mps 724 mmHg 82%
    22:00 +5°C° 0 mm 5 mps 724 mmHg 83%
    23:00 +5°C° 0 mm 5 mps 724 mmHg 85%
    Show more